Details for Ryanair at LGSA




Go Back


Latest METAR
Local Time

LGSA 180620Z 29007KT CAVOK 28/22 Q1011
18/08/2018, 09:30:02

Description
Results
Ryanair Logo
Number of Pilots based at LGSA
0 Pilots Based here
Number of Ryanair Flights Departed from LGSA
1 Flights Departed
Number of Ryanair Flights Arrived at LGSA
2 Flights Arrived
Number of Ryanair Schedules Departing from LGSA
42 Schedules
Number of Ryanair Schedules Arriving at LGSA
46 Schedules
Number of Ryanair Schedules Departing from LGSA availible today
12 Schedules Today
Number of Ryanair Schedules Arriving at LGSA availible today
13 Schedules Today
Average Landing Rate at LGSA
-247 fpm
Ryanair Average Landing Rate at LGSA
-153 fpm
Total Fuel Purchased at LGSA by Ryanair
7,582.70 kgs / 16,716.82 lbs

Pilots Based at LGSA


Pilot ID
Pilot Name
Pilot Rank
No. of Flights
No. of Flying Hours
There are no pilots assigned to this hub!   Will you be the first?
Content